This is the latest recevied weather packets stored in our database for station/object N4CRH-13. If no packets are shown the sender has not sent any weather packets the latest 10 day(s).
| Time | Temp. | Humidity | Pressure | Rain* | Wind** | Luminosity | Snow |
|---|---|---|---|---|---|---|---|
| 1777686072 | 6.11° C | 46% | 1298.1 hPa | 0 mm | - | 7 W/m² | - |
| 1777685768 | 7.78° C | 38% | 1298.2 hPa | 0 mm | - | 10 W/m² | - |
| 1777685463 | 8.33° C | 30% | 1298.5 hPa | 0 mm | - | 12 W/m² | - |
| 1777685161 | 8.89° C | 28% | 1298.5 hPa | 0 mm | - | 15 W/m² | - |
| 1777684859 | 9.44° C | 26% | 1298 hPa | 0 mm | - | 19 W/m² | - |
| 1777684550 | 10° C | 29% | 1298.1 hPa | 0 mm | - | 25 W/m² | - |
| 1777684246 | 10.56° C | 30% | 1298.1 hPa | 0 mm | - | 29 W/m² | - |
| 1777683944 | 10° C | 29% | 1298 hPa | 0 mm | - | 34 W/m² | - |
| 1777683640 | 10.56° C | 31% | 1298.2 hPa | 0 mm | - | 38 W/m² | - |
| 1777683338 | 10.56° C | 27% | 1298 hPa | 0 mm | - | 40 W/m² | - |
| 1777683035 | 10.56° C | 30% | 1298 hPa | 0 mm | - | 45 W/m² | - |
| 1777682731 | 10.56° C | 29% | 1298 hPa | 0 mm | - | 44 W/m² | - |
| 1777682428 | 10.56° C | 27% | 1297.9 hPa | 0 mm | - | 53 W/m² | - |
| 1777682126 | 11.11° C | 27% | 1297.9 hPa | 0 mm | - | 56 W/m² | - |
| 1777681822 | 11.11° C | 27% | 1298 hPa | 0 mm | - | 65 W/m² | - |
| 1777681519 | 11.67° C | 29% | 1297.9 hPa | 0 mm | - | 68 W/m² | - |
| 1777681216 | 11.67° C | 25% | 1297.9 hPa | 0 mm | - | 75 W/m² | - |
| 1777680914 | 11.67° C | 26% | 1297.8 hPa | 0 mm | - | 90 W/m² | - |
| 1777680611 | 11.11° C | 29% | 1297.9 hPa | 0 mm | - | 97 W/m² | - |
| 1777680309 | 11.11° C | 28% | 1297.8 hPa | 0 mm | - | 108 W/m² | - |
| 1777680005 | 11.11° C | 27% | 1297.8 hPa | 0 mm | - | 126 W/m² | - |
| 1777679702 | 11.11° C | 28% | 1297.5 hPa | 0 mm | - | 139 W/m² | - |
| 1777679396 | 11.67° C | 31% | 1297.8 hPa | 0 mm | - | 154 W/m² | - |
| 1777679093 | 11.67° C | 30% | 1297.9 hPa | 0 mm | - | 189 W/m² | - |
| 1777678791 | 11.67° C | 29% | 1297.8 hPa | 0 mm | - | 218 W/m² | - |
* Rain latest hour (hover to see other rain measurements)
** Current wind speed in m/s (hover to see current wind gust speed)